[[{"header":{"parameterUnit":"m.s-1","parameterCategory":1,"la1":30.2991,"la2":30.254,"lo1":-89.0895,"lo2":-89.0444,"dy":0.0017,"dx":0.0017,"nx":28,"ny":28,"refTime":"2024-06-27T09:00:00:Z","depth":0,"parameterNumber":2,"parameterNumberName":"U-component_of_WINDS"},"data":[0,0,0,0,0,0,0,0,0,0,0,0,0,0,0,0,0,0,0,0,0,0,0,0,0,0,0,0,0,0,0,0,0,0,0,0,0,0,0,0,0,0,0,0,0,0,0,0,0,0,0,0,0,0,0,0,0,0,5.5289,5.529,0,5.5391,5.5392,5.5393,5.5275,5.5271,5.5266,5.5262,5.5367,5.5373,5.538,0,0,0,0,0,0,0,0,0,0,0,0,0,5.499,5.4996,5.5289,5.529,5.5291,5.5391,5.5392,5.5393,5.5276,5.527,5.5265,5.526,5.5364,5.5372,5.5381,0,0,0,0,0,0,0,0,0,0,0,0,0,5.5109,5.4998,5.5289,5.5245,5.5242,5.539,5.5392,5.5394,5.5277,5.527,5.5264,5.5257,5.5362,5.5372,5.5382,5.5579,0,0,5.5413,5.5418,0,0,0,0,0,0,0,0,5.5102,5.512,5.525,5.5248,5.5245,5.5313,5.5325,5.5456,5.5279,5.5264,5.5262,5.5254,5.5354,5.5365,5.5398,5.5584,5.5588,5.5414,5.5421,5.5425,5.5428,0,0,0,0,0,0,0,5.5094,5.5115,5.5329,5.5252,5.5249,5.5219,5.5229,5.5349,5.5345,5.5264,5.5256,5.527,5.5352,5.5389,5.54,5.559,5.5414,5.5423,5.543,5.5434,5.5936,5.5943,0,0,0,0,0,0,5.5091,5.5109,5.5326,5.5332,5.5156,5.523,5.524,5.5298,5.5343,5.5344,5.5275,5.5264,5.5374,5.5388,5.5403,5.5632,5.5425,5.5435,5.5441,5.5929,5.5938,5.5945,0,0,0,0,0,0,5.5085,5.5112,5.5322,5.5218,5.5243,5.5242,5.5308,5.5304,5.534,5.5352,5.535,5.5314,5.537,5.5389,5.5535,5.5635,5.5439,5.5449,5.5921,5.5932,5.5942,5.6095,0,0,0,0,0,0,5.5077,5.511,5.5186,5.5221,5.5249,5.5453,5.5314,5.531,5.5359,5.5345,5.5388,5.5388,5.5366,5.552,5.5545,5.5645,5.5457,5.5912,5.5926,5.5938,5.6081,5.611,5.6135,0,0,0,0,0,5.5067,5.5226,5.519,5.5217,5.5343,5.5459,5.5475,5.5446,5.5368,5.5442,5.5449,5.5387,5.5621,5.5536,5.5563,5.5668,5.5905,5.5922,5.5937,5.6069,5.6104,5.6134,0,0,0,0,0,0,5.5203,5.523,5.519,5.5366,5.5411,5.5439,5.5532,5.5484,5.5553,5.5537,5.5498,5.5508,5.5663,5.5681,5.5586,5.5859,5.575,5.5772,5.5841,5.5874,5.59,5.5891,5.5466,0,0,0,0,0,5.5254,5.5346,5.5364,5.5517,5.5542,5.5534,5.5583,5.5557,5.5602,5.562,5.5637,5.5683,5.5766,5.5822,5.5899,5.6084,5.609,5.617,5.6196,5.6218,5.6237,5.6331,5.6366,5.5998,5.5998,5.5998,0,0,5.5359,5.5385,5.5446,5.5545,5.5577,5.5671,5.555,5.5657,5.5726,5.5636,5.5773,5.5788,5.5837,5.6002,5.6076,5.6021,5.634,5.6239,5.6256,5.6263,5.6351,5.6386,5.6417,5.6009,5.6007,5.6005,0,0,5.5598,5.5629,5.5757,5.5791,5.584,5.5833,5.5864,5.5899,5.5905,5.6043,5.5976,5.6058,5.6203,5.6239,5.6276,5.6526,5.647,5.6553,5.6691,5.6783,5.6812,5.6838,5.6923,5.6954,5.6572,5.6573,5.6573,0,5.5722,5.5862,5.5829,5.5939,5.5983,5.5906,5.6034,5.6069,5.6142,5.6173,5.6112,5.629,5.6317,5.6487,5.6548,5.6583,5.6614,5.6546,5.6811,5.6836,5.6859,5.694,5.6972,5.6582,5.6581,5.658,5.6579,0,5.601,5.6109,5.6207,5.6277,5.6332,5.6452,5.6435,5.6495,5.6464,5.6463,5.6602,5.6633,5.6713,5.6752,5.6724,5.6918,5.6882,5.6817,5.6706,5.6904,5.6979,5.701,5.6596,5.6592,5.6589,5.6587,0,0,5.6337,5.6386,5.6422,5.6451,5.6499,5.6574,5.6689,5.6766,5.6817,5.687,5.6962,5.7086,5.7025,5.7067,5.7042,5.7124,5.7314,5.7048,5.7048,5.7092,5.7525,5.757,5.7607,5.7279,5.7285,5.729,5.7519,0,5.6573,5.677,5.6743,5.6932,5.702,5.6948,5.7047,5.7086,5.7089,5.7163,5.7166,5.7252,5.7167,5.7192,5.727,5.7275,5.74,5.7258,5.7362,5.7366,5.7348,5.7647,5.7696,5.7911,5.7549,5.7554,5.7557,0,5.6874,5.6936,5.7134,5.7164,5.72,5.729,5.7357,5.743,5.7472,5.7468,5.7515,5.7474,5.7586,5.7476,5.7628,5.7532,5.7573,5.7582,5.7589,5.7595,5.7471,5.7656,5.798,5.8011,5.7604,5.76,5.7597,0,5.7087,5.722,5.7354,5.7382,5.7422,5.7486,5.7506,5.7542,5.7589,5.7648,5.7678,5.775,5.7789,5.7844,5.7823,5.7746,5.7978,5.7867,5.7975,5.7976,5.8024,5.8021,5.8355,5.8059,5.8058,5.8057,5.8057,0,5.7351,5.7474,5.7449,5.7532,5.7666,5.7633,5.7767,5.7778,5.781,5.7892,5.7835,5.7913,5.7882,5.7957,5.7942,5.8067,5.8087,5.8084,5.8078,5.8087,5.8087,5.811,5.8093,5.8066,5.8064,5.8062,5.8061,0,5.761,5.7599,5.7739,5.7766,5.7775,5.7873,5.7894,5.7971,5.7968,5.8072,5.8095,5.8091,5.8176,5.8161,5.8257,5.8246,5.8402,5.838,5.8387,5.838,5.8487,5.8476,5.8845,5.889,5.8568,5.8572,5.8574,0,5.7777,5.7869,5.7904,5.7955,5.7979,5.8061,5.8108,5.808,5.8131,5.8185,5.8254,5.8334,5.8396,5.8536,5.8541,5.8612,5.8588,5.8713,5.8599,5.8604,5.8585,5.8578,5.8585,5.8734,5.8738,5.8741,5.8744,0,5.8073,5.8062,5.8132,5.8201,5.8259,5.8312,5.8358,5.8403,5.8378,5.8438,5.8524,5.8573,5.8669,5.8748,5.8814,5.8833,5.8783,5.878,5.8808,5.8816,5.8814,5.8812,5.8444,5.8771,5.8768,5.8766,5.8765,5.8763,5.8287,5.8364,5.84,5.848,5.8512,5.8556,5.8628,5.8634,5.8705,5.878,5.8759,5.8856,5.8893,5.8977,5.9003,5.9077,5.9031,5.9073,5.9082,5.9092,5.9102,5.8806,5.909,5.9089,5.9088,5.9088,5.9087,0,5.8576,5.8595,5.8669,5.8735,5.8797,5.8746,5.8795,5.885,5.8935,5.8974,5.9036,5.9133,5.9209,5.922,5.9291,5.9348,5.9327,5.9368,5.9361,5.9365,5.9142,5.9109,5.9383,5.9383,5.9383,5.9383,5.9383,5.9383,5.8733,5.8859,5.8853,5.8993,5.9011,5.9105,5.9137,5.9177,5.9207,5.9318,5.938,5.9387,5.9413,5.9486,5.9552,5.9553,5.958,5.9629,5.9621,5.9411,5.9382,5.9353,5.9321,5.9636,5.9636,5.9837,5.9838,5.984]},{"header":{"parameterUnit":"m.s-1","parameterCategory":1,"la1":30.2991,"la2":30.254,"lo1":-89.0895,"lo2":-89.0444,"dy":0.0017,"dx":0.0017,"nx":28,"ny":28,"refTime":"2024-06-27T09:00:00:Z","depth":0,"parameterNumber":3,"parameterNumberName":"V-component_of_WINDS"},"data":[0,0,0,0,0,0,0,0,0,0,0,0,0,0,0,0,0,0,0,0,0,0,0,0,0,0,0,0,0,0,0,0,0,0,0,0,0,0,0,0,0,0,0,0,0,0,0,0,0,0,0,0,0,0,0,0,0,0,3.47,3.4703,0,3.4965,3.4968,3.4971,3.5033,3.5031,3.5029,3.5027,3.5297,3.5306,3.5315,0,0,0,0,0,0,0,0,0,0,0,0,0,3.4242,3.425,3.47,3.4703,3.4706,3.4965,3.4969,3.4972,3.5033,3.5031,3.5029,3.5027,3.5294,3.5305,3.5315,0,0,0,0,0,0,0,0,0,0,0,0,0,3.4467,3.4253,3.4699,3.4768,3.4777,3.4964,3.4969,3.4973,3.5034,3.5031,3.5028,3.5025,3.5291,3.5304,3.5317,3.5454,0,0,3.5358,3.5363,0,0,0,0,0,0,0,0,3.4454,3.4484,3.4755,3.4764,3.4774,3.4963,3.4906,3.5134,3.5034,3.4936,3.5027,3.5024,3.5188,3.521,3.5265,3.5467,3.5478,3.5359,3.5367,3.5373,3.5376,0,0,0,0,0,0,0,3.4439,3.4473,3.4805,3.4758,3.477,3.4784,3.4813,3.495,3.5074,3.4944,3.4949,3.498,3.5193,3.5252,3.5272,3.5482,3.5358,3.537,3.5378,3.5384,3.5806,3.5809,0,0,0,0,0,0,3.4411,3.4459,3.4796,3.4813,3.4604,3.4795,3.4827,3.4905,3.5073,3.5096,3.4982,3.4982,3.5231,3.5257,3.5282,3.5452,3.5372,3.5385,3.5393,3.5803,3.5807,3.581,0,0,0,0,0,0,3.4401,3.4441,3.4786,3.4638,3.4683,3.4806,3.4893,3.4912,3.4972,3.5101,3.5124,3.5021,3.523,3.5263,3.541,3.5462,3.5391,3.5403,3.5799,3.5804,3.5809,3.5794,0,0,0,0,0,0,3.4388,3.4437,3.4491,3.4638,3.469,3.4911,3.4896,3.4919,3.4995,3.4997,3.5143,3.5165,3.523,3.539,3.5423,3.5479,3.5414,3.5795,3.5801,3.5807,3.579,3.5797,3.5803,0,0,0,0,0,3.4371,3.4477,3.4494,3.4534,3.4761,3.4914,3.4943,3.5017,3.4999,3.5054,3.5136,3.516,3.5451,3.5405,3.5443,3.5503,3.5792,3.58,3.5807,3.5787,3.5796,3.5803,0,0,0,0,0,0,3.4333,3.4497,3.4518,3.4675,3.4779,3.4924,3.4996,3.5024,3.5137,3.5134,3.522,3.5252,3.5393,3.5463,3.5409,3.5643,3.5621,3.5636,3.5593,3.5602,3.5609,3.5589,3.5425,0,0,0,0,0,3.4342,3.4453,3.4591,3.4715,3.4767,3.4872,3.4941,3.4989,3.5101,3.5145,3.5239,3.5346,3.5462,3.5536,3.5649,3.58,3.5832,3.586,3.5867,3.5872,3.5884,3.5966,3.598,3.5834,3.5834,3.5834,0,0,3.4363,3.4467,3.4532,3.471,3.4797,3.4909,3.4909,3.5028,3.5111,3.5163,3.5308,3.538,3.5505,3.5654,3.5724,3.5716,3.5931,3.5881,3.5884,3.5894,3.5975,3.5989,3.6001,3.5839,3.5838,3.5837,0,0,3.4459,3.4549,3.4662,3.4748,3.488,3.4949,3.4975,3.5115,3.5165,3.5311,3.5352,3.5452,3.5649,3.5736,3.5806,3.5931,3.5956,3.5965,3.6,3.608,3.6091,3.6102,3.6144,3.6159,3.5977,3.5977,3.5977,0,3.4468,3.4639,3.4716,3.4832,3.4908,3.496,3.5074,3.5154,3.5316,3.5366,3.5356,3.5603,3.5691,3.5859,3.5889,3.5945,3.5977,3.5949,3.6083,3.6095,3.6106,3.6147,3.6164,3.5977,3.5977,3.5977,3.5977,0,3.4643,3.476,3.4835,3.499,3.5074,3.5189,3.5281,3.5357,3.5397,3.5466,3.5612,3.5719,3.5854,3.5898,3.5938,3.6072,3.6063,3.6066,3.6046,3.6118,3.6159,3.6176,3.5977,3.5977,3.5977,3.5977,0,0,3.4722,3.4916,3.4942,3.5012,3.516,3.5252,3.5367,3.5499,3.5562,3.5671,3.5769,3.5933,3.5937,3.6016,3.6066,3.6136,3.6225,3.6131,3.6135,3.6143,3.6377,3.6372,3.6389,3.6243,3.6246,3.6249,3.6365,0,3.4835,3.5044,3.5115,3.5287,3.5395,3.5445,3.5546,3.5646,3.5713,3.5814,3.5887,3.6002,3.6,3.6047,3.6118,3.6199,3.6273,3.6192,3.6333,3.6337,3.6299,3.6411,3.6407,3.6512,3.6382,3.6385,3.6387,0,3.4994,3.5105,3.5288,3.542,3.5468,3.5557,3.5682,3.5778,3.5892,3.5936,3.6023,3.6067,3.6188,3.6159,3.6326,3.6269,3.633,3.6378,3.6384,3.64,3.6366,3.6428,3.6548,3.6563,3.6413,3.6411,3.6409,0,3.5031,3.5226,3.536,3.5419,3.5577,3.5637,3.5706,3.5817,3.5891,3.6001,3.6049,3.6171,3.6237,3.6329,3.6404,3.6377,3.6563,3.6541,3.6601,3.6599,3.6638,3.6634,3.6768,3.6679,3.6679,3.6678,3.6678,0,3.5149,3.5258,3.5379,3.5461,3.5585,3.5665,3.5784,3.5855,3.5954,3.6049,3.61,3.6188,3.6283,3.6383,3.6442,3.6569,3.6599,3.6637,3.6651,3.6632,3.6627,3.6673,3.6667,3.6683,3.6682,3.6681,3.668,0,3.5211,3.5297,3.5446,3.5583,3.562,3.5704,3.5821,3.5902,3.597,3.609,3.6123,3.623,3.6351,3.6435,3.659,3.6629,3.6766,3.678,3.6727,3.6734,3.6789,3.6782,3.6956,3.6982,3.6876,3.6877,3.6878,0,3.528,3.5366,3.5511,3.5579,3.5647,3.5756,3.5832,3.5913,3.5989,3.6124,3.6188,3.6312,3.6415,3.6605,3.6696,3.6813,3.683,3.6883,3.6848,3.6825,3.6829,3.6823,3.683,3.6888,3.6888,3.6889,3.689,0,3.5393,3.543,3.5538,3.5659,3.5747,3.5847,3.5947,3.5999,3.6098,3.618,3.6304,3.6384,3.6542,3.6663,3.6789,3.6858,3.689,3.69,3.692,3.6901,3.6866,3.6884,3.6741,3.6895,3.6895,3.6894,3.6894,3.6894,3.546,3.5537,3.5651,3.5768,3.5851,3.5943,3.6025,3.6103,3.6208,3.6343,3.6384,3.6512,3.6621,3.6794,3.6865,3.6965,3.6961,3.699,3.6997,3.7003,3.7001,3.685,3.6988,3.6988,3.6988,3.6988,3.6988,0,3.5574,3.5649,3.5756,3.5893,3.5985,3.6007,3.6118,3.6192,3.6304,3.6404,3.6505,3.6645,3.6763,3.6862,3.6983,3.7044,3.7061,3.7073,3.7069,3.7084,3.6999,3.6969,3.7057,3.7057,3.7057,3.7057,3.7057,3.7057,3.5644,3.5775,3.5825,3.5997,3.6072,3.6198,3.6259,3.6343,3.6423,3.6578,3.6676,3.674,3.6839,3.6967,3.7075,3.7101,3.7143,3.7151,3.718,3.7098,3.709,3.7083,3.7055,3.7159,3.716,3.7257,3.7257,3.7258]}]]